FW8736 Weather Reports


time (UTC)temp
C
wind
direction
speed
KPH
gust
KPH
rain 1hr
cm
rain 24hr
cm
rain mn
cm
humidity
%
barometer
mb
20260504081017 11 146 3.2 6.4 0.00 0.00 0.00 77 1014.8
20260504050017 6 151 0.0 1.6 0.00 0.00 0.00 87 1015.0
20260504045017 6 108 0.0 1.6 0.00 0.00 0.00 85 1015.1
20260504044017 6 0.0 0.0 0.00 0.00 0.00 83 1015.1
20260504043017 6 139 0.0 3.2 0.00 0.00 0.00 83 1015.0
20260504042018 6 0.0 0.0 0.00 0.00 0.00 83 1015.0
20260504041018 6 0.0 0.0 0.00 0.00 0.00 82 1014.9
20260504040018 6 0.0 0.0 0.00 0.00 0.00 81 1014.8
20260504035015 6 0.0 0.0 0.00 0.00 0.00 79 1014.7
20260504034015 5 121 0.0 1.6 0.00 0.00 0.00 81 1014.7
20260504033015 5 0.0 0.0 0.00 0.00 0.00 83 1014.7
20260504032016 6 94 0.0 1.6 0.00 0.00 0.00 81 1014.5
20260504031016 5 0.0 0.0 0.00 0.00 0.00 80 1014.4
20260504030036 6 118 0.0 1.6 0.00 0.00 0.00 82 1014.5
20260504025016 6 107 0.0 3.2 0.00 0.00 0.00 80 1014.5
20260504024017 6 103 0.0 1.6 0.00 0.00 0.00 78 1014.4
20260504023036 6 0.0 0.0 0.00 0.00 0.00 78 1014.5
20260504022017 7 127 0.0 3.2 0.00 0.00 0.00 78 1014.5
20260504021017 7 113 0.0 3.2 0.00 0.00 0.00 75 1014.4
20260504020017 7 0.0 0.0 0.00 0.00 0.00 74 1014.4
20260504015017 7 0.0 0.0 0.00 0.00 0.00 74 1014.4
20260504014017 8 107 0.0 3.2 0.00 0.00 0.00 70 1014.3
20260504013017 8 104 0.0 1.6 0.00 0.00 0.00 69 1014.2
20260504012018 8 0.0 0.0 0.00 0.00 0.00 68 1014.1
20260504011018 9 0.0 0.0 0.00 0.00 0.00 68 1014.1
20260504010019 10 111 0.0 1.6 0.00 0.00 0.00 65 1014.0
20260504005015 10 0.0 0.0 0.00 0.00 0.00 60 1014.0
20260504004015 11 99 0.0 3.2 0.00 0.00 0.00 58 1013.9
20260504003016 12 118 0.0 3.2 0.00 0.00 0.00 53 1013.8
20260504002016 13 130 1.6 3.2 0.00 0.00 0.00 49 1013.6
20260504001016 13 197 1.6 3.2 0.00 0.00 0.00 46 1013.6
20260504000016 14 191 0.0 3.2 0.00 0.00 0.00 45 1013.4
20260503235016 15 184 1.6 4.8 0.00 0.00 0.00 43 1013.3
20260503234017 15 196 3.2 6.4 0.00 0.00 0.00 41 1013.2
20260503233017 15 198 1.6 4.8 0.00 0.00 0.00 40 1013.2
20260503232038 15 202 3.2 6.4 0.00 0.00 0.00 39 1013.2
20260503231018 16 208 4.8 9.7 0.00 0.00 0.00 39 1013.2
20260503230017 16 208 1.6 6.4 0.00 0.00 0.00 38 1013.2
20260503225018 16 205 3.2 12.9 0.00 0.00 0.00 37 1013.3
20260503224018 16 210 4.8 12.9 0.00 0.00 0.00 36 1013.2
20260503223015 17 204 4.8 12.9 0.00 0.00 0.00 37 1013.2
20260503222035 17 225 4.8 14.5 0.00 0.00 0.00 36 1013.3
20260503221018 16 204 4.8 12.9 0.00 0.00 0.00 36 1013.3
20260503220015 16 214 6.4 16.1 0.00 0.00 0.00 37 1013.4
20260503215016 17 220 6.4 14.5 0.00 0.00 0.00 37 1013.3
20260503214016 16 232 6.4 14.5 0.00 0.00 0.00 36 1013.4
20260503213016 16 224 8.0 14.5 0.00 0.00 0.00 36 1013.3
20260503212056 16 245 6.4 14.5 0.00 0.00 0.00 37 1013.2
20260503211036 16 212 8.0 14.5 0.00 0.00 0.00 37 1013.2
20260503210017 16 227 8.0 16.1 0.00 0.00 0.00 37 1013.3
20260503205018 16 247 6.4 16.1 0.00 0.00 0.00 37 1013.4
20260503204017 16 223 6.4 14.5 0.00 0.00 0.00 37 1013.5
20260503203017 16 213 6.4 14.5 0.00 0.00 0.00 38 1013.5
20260503202058 16 222 4.8 14.5 0.00 0.00 0.00 38 1013.6
20260503201017 16 273 4.8 16.1 0.00 0.00 0.00 37 1013.8
20260503200018 16 221 6.4 14.5 0.00 0.00 0.00 38 1013.8
20260503195018 16 224 9.7 16.1 0.00 0.00 0.00 38 1014.0
20260503194018 15 232 6.4 14.5 0.00 0.00 0.00 38 1014.2
20260503193038 15 224 8.0 16.1 0.00 0.00 0.00 38 1014.2
20260503192015 15 251 8.0 17.7 0.00 0.00 0.00 37 1014.2
20260503191035 15 249 8.0 14.5 0.00 0.00 0.00 37 1014.4
20260503190015 15 304 8.0 17.7 0.00 0.00 0.00 37 1014.4
20260503185016 15 287 8.0 16.1 0.00 0.00 0.00 38 1014.4
20260503184036 15 237 9.7 17.7 0.00 0.00 0.00 37 1014.5
20260503183016 15 216 9.7 17.7 0.00 0.00 0.00 38 1014.6
20260503182016 15 257 8.0 14.5 0.00 0.00 0.00 38 1014.7
20260503181017 14 255 8.0 14.5 0.00 0.00 0.00 38 1014.8
20260503180017 14 231 6.4 17.7 0.00 0.00 0.00 38 1014.7
20260503175017 15 224 6.4 14.5 0.00 0.00 0.00 38 1014.9
20260503174037 14 235 8.0 20.9 0.00 0.00 0.00 38 1015.0
20260503173017 14 239 6.4 16.1 0.00 0.00 0.00 39 1015.0
20260503172017 13 230 8.0 14.5 0.00 0.00 0.00 40 1015.1
20260503171018 13 220 8.0 14.5 0.00 0.00 0.00 40 1015.1
20260503131016 10 322 8.0 22.5 0.00 0.00 0.00 53 1015.3